Regional Weather Roundup
Issued by NWS

Home | Current Version | Previous Version | Graphics & Text | Print | Product List | Glossary On
Versions: 1 2 3 4 5 6 7 8 9 10 11 12 13 14 15 16 17 18 19 20 21 22 23 24 25 26 27 28 29 30 31 32 33 34 35 36 37 38 39 40 41 42 43 44 45 46 47 48 49 50
000
ASUS45 KSLC 280010
RWRUT

UTAH REGIONAL WEATHER ROUNDUP
NATIONAL WEATHER SERVICE SALT LAKE CITY UT
500 PM MST THU NOV 27 2014

UTZ001>011-023>025-280100-

NORTHERN UTAH

CITY           SKY/WX    TMP DP  RH WIND       PRES   REMARKS
BRIGHAM CITY   MOCLDY    49  33  53 CALM      30.19F
HILL AFB       MOCLDY    52  25  35 SE7       30.19F
LOGAN          CLEAR     46  35  65 CALM      30.18F
OGDEN          MOCLDY    53  26  35 S5        30.18F
PROVO AIRPORT  CLOUDY    39  30  70 VRB3      30.23F
SALT LAKE CITY CLOUDY    54  24  31 SE10      30.18F
VERNAL         MOCLDY    47  24  40 CALM      30.26F
WENDOVER       MOCLDY    48  28  46 CALM      30.18F
HEBER CITY     CLOUDY    41  32  70 CALM      30.25S
WEST JORDAN    CLEAR     55  30  38 S9        30.20F

$$

UTZ012>022-026-027-280100-

SOUTHERN/CENTRAL UTAH

CITY           SKY/WX    TMP DP  RH WIND       PRES   REMARKS
BLANDING       CLOUDY    47  24  40 CALM      30.43S
BRYCE CANYON   MOCLDY    45  16  31 CALM      30.39R
CEDAR CITY     MOCLDY    57  11  16 S12       30.27F
DELTA          CLOUDY    49  29  46 NE3       30.23F
MILFORD        CLOUDY    54  21  27 SW13      30.23S
MOAB/CYNLANDS  CLEAR     48  23  37 NW8       30.30S
PRICE          PTCLDY    47  23  38 CALM      30.33F
ST GEORGE      CLOUDY    57  21  24 CALM      30.23S
KANAB          MOCLDY    50  19  29 CALM      30.31F

$$

REGIONAL REPORTS     COLORADO/ARIZONA

CITY           SKY/WX    TMP DP  RH WIND       PRES   REMARKS
CRAIG, CO      CLOUDY    38  27  64 E5        30.28S WCI  34
GRAND JUNCTION CLOUDY    46  27  47 CALM      30.32S
RIFLE          CLOUDY    43  29  57 CALM      30.33R
MONTROSE       MOCLDY    50  24  36 N3        30.34S
CORTEZ         CLEAR     40  23  50 CALM      30.36F
PAGE, AZ       MOCLDY    53  20  27 CALM      30.29F
GRAND CANYON   CLOUDY    55  11  17 N3        30.35S
KINGMAN        CLOUDY    64  17  16 NE6       30.21R
FLAGSTAFF      PTCLDY    59  16  18 CALM      30.38R

$$

REGIONAL REPORTS    NEVADA/IDAHO/WYOMING

CITY           SKY/WX    TMP DP  RH WIND       PRES   REMARKS
LAS VEGAS, NV  CLOUDY    63  23  21 S6        30.14F
ELY            CLOUDY    54  13  19 VRB5      30.27S
ELKO           CLOUDY    53  35  50 CALM      30.18S
POCATELLO, ID  CLEAR     54  27  35 S14       30.13S
BURLEY         CLOUDY    55  32  41 SW8       30.09F
EVANSTON, WY   MOCLDY    45  20  36 SW8       30.27F
ROCK SPRINGS   PTCLDY    43  22  43 W17       30.22F

$$



USA.gov is the U.S. government's official web portal to all federal, state and local government web resources and services.